EA5AFP-10 Weather Reports


time (UTC)temp
F
wind
direction
speed
knots
gust
knots
rain 1hr
in
rain 24hr
in
rain mn
in
humidity
%
barometer
mb
20260510162359 75 90 0.9 1.7 0.00 0.00 0.00 6 1005.4
20260510161940 74 112 1.7 3.5 0.00 0.00 0.00 6 1005.5
20260510161652 74 112 2.6 5.2 0.00 0.00 0.00 6 1005.3
20260510161521 74 112 2.6 5.2 0.00 0.00 0.00 6 1005.4
20260510161038 75 90 5.2 7.8 0.00 0.00 0.00 6 1005.3
20260510160653 74 67 5.2 7.8 0.00 0.00 0.00 6 1005.4
20260510160620 74 67 5.2 7.8 0.00 0.00 0.00 6 1005.4
20260510160155 74 135 3.5 5.2 0.00 0.00 0.00 6 1005.5
20260510155702 74 67 8.7 13.0 0.00 0.00 0.00 6 1005.4
20260510155700 74 67 8.7 13.0 0.00 0.00 0.00 6 1005.4
20260510155507 74 112 7.8 9.6 0.00 0.00 0.00 6 1005.5
20260510155359 74 90 6.1 7.8 0.00 0.00 0.00 6 1005.6
20260510154957 74 112 7.8 11.3 0.00 0.00 0.00 6 1005.4
20260510154552 75 67 4.3 7.8 0.00 0.00 0.00 6 1005.3
20260510154113 76 90 5.2 7.0 0.00 0.00 0.00 6 1005.3
20260510153657 75 45 2.6 5.2 0.00 0.00 0.00 6 1005.5
20260510153625 75 45 2.6 5.2 0.00 0.00 0.00 6 1005.5
20260510153157 74 90 1.7 3.5 0.00 0.00 0.00 6 1005.5
20260510152706 74 112 3.5 5.2 0.00 0.00 0.00 6 1005.5
20260510152230 74 112 5.2 7.0 0.00 0.00 0.00 6 1005.6
20260510152210 74 135 4.3 5.2 0.00 0.00 0.00 6 1005.4
20260510151811 75 112 1.7 5.2 0.00 0.00 0.00 5 1005.6
20260510151327 75 135 4.3 5.2 0.00 0.00 0.00 6 1005.6
20260510150925 74 90 3.5 5.2 0.00 0.00 0.00 6 1005.8
20260510150436 74 135 2.6 5.2 0.00 0.00 0.00 6 1005.8
20260510150010 73 90 6.1 7.8 0.00 0.00 0.00 6 1005.8
20260510145546 73 67 4.3 7.0 0.00 0.00 0.00 6 1006.0
20260510145051 72 112 6.1 7.8 0.00 0.00 0.00 6 1006.0
20260510144601 73 112 4.3 5.2 0.00 0.00 0.00 6 1005.9
20260510144129 72 90 5.2 7.0 0.00 0.00 0.00 6 1006.3
20260510143711 71 112 4.3 7.0 0.00 0.00 0.00 7 1006.3
20260510143246 72 135 7.0 10.4 0.00 0.00 0.00 7 1006.5
20260510142752 72 90 5.2 8.7 0.00 0.00 0.00 7 1006.5
20260510142418 71 112 7.8 10.4 0.00 0.00 0.00 7 1006.7
20260510142349 71 112 7.0 9.6 0.00 0.00 0.00 7 1006.5
20260510141956 72 112 5.2 7.8 0.00 0.00 0.00 7 1006.5
20260510141506 71 112 7.8 11.3 0.00 0.00 0.00 7 1006.5
20260510141036 71 67 7.0 10.4 0.00 0.00 0.00 7 1006.7
20260510140655 71 90 9.6 11.3 0.00 0.00 0.00 6 1006.8
20260510140618 71 90 9.6 11.3 0.00 0.00 0.00 6 1006.8
20260510140153 71 90 9.6 11.3 0.00 0.00 0.00 6 1006.8
20260510135702 72 90 8.7 11.3 0.00 0.00 0.00 5 1007.0
20260510135658 72 90 8.7 11.3 0.00 0.00 0.00 5 1007.0
20260510135405 72 135 10.4 14.8 0.00 0.00 0.00 5 1007.2
20260510134945 72 112 9.6 14.8 0.00 0.00 0.00 5 1007.2
20260510134525 72 90 10.4 14.8 0.00 0.00 0.00 5 1007.0
20260510134041 73 90 7.8 11.3 0.00 0.00 0.00 5 1007.2
20260510133658 72 112 7.8 11.3 0.00 0.00 0.00 6 1007.4
20260510133625 72 112 7.8 11.3 0.00 0.00 0.00 6 1007.4
20260510133200 72 90 9.6 15.6 0.00 0.00 0.00 5 1007.4
20260510132709 73 112 6.1 10.4 0.00 0.00 0.00 6 1007.5
20260510132705 73 112 6.1 10.4 0.00 0.00 0.00 6 1007.5
20260510132421 73 135 7.8 11.3 0.00 0.00 0.00 6 1007.6
20260510131958 72 90 8.7 13.0 0.00 0.00 0.00 6 1007.7
20260510131654 71 90 8.7 13.0 0.00 0.00 0.00 6 1007.7
20260510131510 71 135 9.6 11.3 0.00 0.00 0.00 6 1007.7
20260510131040 72 90 11.3 15.6 0.00 0.00 0.00 6 1007.6
20260510130654 71 67 10.4 14.8 0.00 0.00 0.00 6 1007.8
20260510130621 71 67 10.4 14.8 0.00 0.00 0.00 6 1007.8
20260510130156 73 45 8.7 13.0 0.00 0.00 0.00 6 1008.0
20260510125704 73 67 7.8 11.3 0.00 0.00 0.00 6 1008.1
20260510125701 73 67 7.8 11.3 0.00 0.00 0.00 6 1008.1
20260510125504 72 67 8.7 11.3 0.00 0.00 0.00 6 1008.0
20260510125008 71 112 7.8 10.4 0.00 0.00 0.00 6 1008.1
20260510124520 71 112 5.2 7.0 0.00 0.00 0.00 6 1008.3
20260510124102 71 135 6.1 8.7 0.00 0.00 0.00 6 1008.2
20260510123602 70 90 7.0 9.6 0.00 0.00 0.00 6 1008.3
20260510123528 70 90 7.0 9.6 0.00 0.00 0.00 6 1008.3
20260510123112 70 67 7.0 10.4 0.00 0.00 0.00 6 1008.4
20260510122658 70 90 7.8 13.0 0.00 0.00 0.00 6 1008.4
20260510122656 70 90 7.8 13.0 0.00 0.00 0.00 6 1008.4
20260510122513 70 67 7.8 14.8 0.00 0.00 0.00 6 1008.4
20260510122248 71 90 5.2 9.6 0.00 0.00 0.00 6 1008.4
20260510122016 70 90 7.8 10.4 0.00 0.00 0.00 6 1008.4
20260510121526 70 135 5.2 8.7 0.00 0.00 0.00 6 1008.5
20260510121407 69 112 5.2 7.8 0.00 0.00 0.00 6 1008.6
20260510121107 69 112 7.0 11.3 0.00 0.00 0.00 6 1008.6
20260510120608 69 112 9.6 13.0 0.00 0.00 0.00 6 1008.7
20260510120118 70 112 10.4 16.5 0.00 0.00 0.00 6 1008.8
20260510115705 71 112 5.2 10.4 0.00 0.00 0.00 6 1008.8
20260510115703 71 112 5.2 10.4 0.00 0.00 0.00 6 1008.8
20260510115359 71 112 10.4 14.8 0.00 0.00 0.00 6 1008.8
20260510115259 71 67 10.4 13.0 0.00 0.00 0.00 6 1008.9
20260510114957 70 90 9.6 14.8 0.00 0.00 0.00 6 1008.9
20260510114532 71 90 10.4 14.8 0.00 0.00 0.00 6 1008.9
20260510114113 71 90 10.4 14.8 0.00 0.00 0.00 6 1009.0
20260510113613 71 90 12.2 16.5 0.00 0.00 0.00 6 1009.1
20260510113537 71 67 11.3 14.8 0.00 0.00 0.00 6 1009.1
20260510113123 71 90 7.8 13.0 0.00 0.00 0.00 6 1009.2
20260510112709 71 90 9.6 13.0 0.00 0.00 0.00 6 1008.9
20260510112245 72 90 7.8 11.3 0.00 0.00 0.00 6 1008.9
20260510111750 72 90 7.8 11.3 0.00 0.00 0.00 6 1009.0
20260510111538 71 90 8.7 13.0 0.00 0.00 0.00 6 1009.1
20260510111347 71 135 7.8 10.4 0.00 0.00 0.00 6 1009.1
20260510110944 71 90 9.6 13.0 0.00 0.00 0.00 6 1009.2
20260510110538 71 112 8.7 13.0 0.00 0.00 0.00 6 1009.2
20260510110119 71 67 7.0 9.6 0.00 0.00 0.00 6 1009.2
20260510105711 70 112 7.8 10.4 0.00 0.00 0.00 6 1009.3
20260510105427 70 67 7.8 10.4 0.00 0.00 0.00 6 1009.3
20260510104950 70 90 10.4 14.8 0.00 0.00 0.00 6 1009.3
20260510104701 70 90 8.7 13.0 0.00 0.00 0.00 6 1009.5
20260510104530 70 112 7.0 11.3 0.00 0.00 0.00 7 1009.3
20260510104054 70 112 10.4 13.0 0.00 0.00 0.00 6 1009.4
20260510103638 70 90 7.8 11.3 0.00 0.00 0.00 7 1009.5
20260510103205 70 90 8.7 13.0 0.00 0.00 0.00 6 1009.5
20260510102709 70 90 9.6 13.0 0.00 0.00 0.00 6 1009.6
20260510102440 71 90 4.3 7.8 0.00 0.00 0.00 6 1009.6
20260510101944 70 90 7.0 8.7 0.00 0.00 0.00 7 1009.7
20260510101656 71 67 7.8 9.6 0.00 0.00 0.00 7 1009.6
20260510101526 71 112 9.6 10.4 0.00 0.00 0.00 6 1009.6
20260510101042 72 90 4.3 7.8 0.00 0.00 0.00 6 1009.7
20260510100657 70 90 5.2 8.7 0.00 0.00 0.00 6 1009.8
20260510100625 70 90 5.2 8.7 0.00 0.00 0.00 6 1009.8
20260510100200 71 135 6.1 7.8 0.00 0.00 0.00 6 1009.6
20260510095709 73 247 3.5 5.2 0.00 0.00 0.00 4 1009.7
20260510095705 73 247 3.5 5.2 0.00 0.00 0.00 4 1009.7
20260510095603 73 247 3.5 5.2 0.00 0.00 0.00 4 1009.7
20260510095448 73 270 2.6 5.2 0.00 0.00 0.00 4 1009.8
20260510094952 72 315 3.5 5.2 0.00 0.00 0.00 5 1009.8
20260510094705 72 292 3.5 5.2 0.00 0.00 0.00 4 1009.7
20260510094533 72 270 5.2 7.8 0.00 0.00 0.00 4 1009.8
20260510094049 72 270 4.3 5.2 0.00 0.00 0.00 5 1010.0
20260510093705 72 315 3.5 5.2 0.00 0.00 0.00 5 1009.9
20260510093633 72 315 3.5 5.2 0.00 0.00 0.00 5 1009.9
20260510093208 71 337 2.6 3.5 0.00 0.00 0.00 5 1009.9
20260510092713 71 270 5.2 7.8 0.00 0.00 0.00 5 1009.9
20260510092338 71 270 3.5 5.2 0.00 0.00 0.00 5 1009.9
20260510092302 71 337 3.5 5.2 0.00 0.00 0.00 5 1010.1
20260510091909 71 315 4.3 5.2 0.00 0.00 0.00 5 1010.1
20260510091459 71 315 4.3 7.0 0.00 0.00 0.00 5 1010.0
20260510091408 71 270 5.2 7.0 0.00 0.00 0.00 5 1010.1
20260510091025 70 315 5.2 7.0 0.00 0.00 0.00 5 1010.2
20260510090539 71 270 5.2 7.8 0.00 0.00 0.00 5 1010.1
20260510090124 70 270 4.3 5.2 0.00 0.00 0.00 5 1010.1
20260510085714 70 315 5.2 7.0 0.00 0.00 0.00 5 1010.1
20260510085357 70 270 2.6 2.6 0.00 0.00 0.00 5 1010.1
20260510084955 70 292 0.9 2.6 0.00 0.00 0.00 5 1010.2
20260510084530 70 247 0.9 1.7 0.00 0.00 0.00 5 1010.2
20260510084409 69 270 1.7 1.7 0.00 0.00 0.00 6 1010.3
20260510084058 71 0 0.0 1.7 0.00 0.00 0.00 6 1010.2
20260510083538 69 247 1.7 2.6 0.00 0.00 0.00 6 1010.5
20260510083121 69 247 0.0 2.6 0.00 0.00 0.00 6 1010.3
20260510082706 68 0 1.7 2.6 0.00 0.00 0.00 6 1010.3
20260510082444 68 315 0.0 1.7 0.00 0.00 0.00 6 1010.4
20260510081948 68 337 0.9 2.6 0.00 0.00 0.00 6 1010.4
20260510081700 69 0 0.0 1.7 0.00 0.00 0.00 6 1010.3
20260510081529 69 135 0.9 1.7 0.00 0.00 0.00 6 1010.4
20260510081045 68 67 0.0 0.9 0.00 0.00 0.00 7 1010.3
20260510080629 68 0 0.0 0.0 0.00 0.00 0.00 7 1010.4
20260510080204 68 90 0.9 1.7 0.00 0.00 0.00 7 1010.5
20260510075711 67 0 0.0 0.0 0.00 0.00 0.00 7 1010.4
20260510075709 67 0 0.0 0.0 0.00 0.00 0.00 7 1010.4
20260510075440 66 0 0.0 0.0 0.00 0.00 0.00 7 1010.6
20260510074944 67 45 0.0 0.9 0.00 0.00 0.00 7 1010.4
20260510074656 66 0 0.0 0.0 0.00 0.00 0.00 7 1010.5
20260510074526 66 0 0.0 0.0 0.00 0.00 0.00 8 1010.6
20260510074042 64 90 0.0 0.9 0.00 0.00 0.00 8 1010.5
20260510073700 64 67 0.9 1.7 0.00 0.00 0.00 8 1010.5
20260510073625 64 67 0.9 1.7 0.00 0.00 0.00 8 1010.5
20260510073200 65 0 0.0 0.0 0.00 0.00 0.00 8 1010.6
20260510072707 64 45 0.0 0.9 0.00 0.00 0.00 8 1010.5
20260510072705 64 45 0.0 0.9 0.00 0.00 0.00 8 1010.5
20260510072441 63 292 0.0 0.9 0.00 0.00 0.00 9 1010.7
20260510072000 62 0 0.0 0.0 0.00 0.00 0.00 9 1010.6
20260510071509 61 270 0.0 0.9 0.00 0.00 0.00 9 1010.5
20260510071039 60 292 0.9 1.7 0.00 0.00 0.00 9 1010.6
20260510070654 60 292 0.9 0.9 0.00 0.00 0.00 9 1010.7
20260510070621 60 292 0.9 0.9 0.00 0.00 0.00 9 1010.7
20260510070156 60 292 0.0 1.7 0.00 0.00 0.00 9 1010.7
20260510065703 59 292 0.9 1.7 0.00 0.00 0.00 9 1010.6
20260510065701 59 292 0.9 1.7 0.00 0.00 0.00 9 1010.6
20260510065510 59 292 0.0 0.9 0.00 0.00 0.00 9 1010.6
20260510065352 59 292 0.0 0.9 0.00 0.00 0.00 9 1010.5
20260510064935 59 292 0.9 1.7 0.00 0.00 0.00 9 1010.6
20260510064534 58 292 0.0 0.9 0.00 0.00 0.00 9 1010.4
20260510064512 58 292 0.0 0.9 0.00 0.00 0.00 9 1010.5
20260510064047 58 292 0.9 1.7 0.00 0.00 0.00 9 1010.3
20260510063704 58 292 1.7 1.7 0.00 0.00 0.00 9 1010.4
20260510063629 58 292 1.7 1.7 0.00 0.00 0.00 9 1010.4
20260510063204 58 270 1.7 2.6 0.00 0.00 0.00 9 1010.2
20260510062709 58 270 1.7 1.7 0.00 0.00 0.00 9 1010.4
20260510062322 57 292 1.7 1.7 0.00 0.00 0.00 9 1010.3
20260510061847 57 270 0.9 1.7 0.00 0.00 0.00 9 1010.2
20260510061441 57 247 0.9 1.7 0.00 0.00 0.00 9 1010.2
20260510061249 57 247 0.9 1.7 0.00 0.00 0.00 9 1010.1
20260510060947 57 292 0.0 0.9 0.00 0.00 0.00 9 1010.3
20260510060456 57 270 1.7 1.7 0.00 0.00 0.00 9 1010.3
20260510060008 56 292 1.7 2.6 0.00 0.00 0.00 9 1010.0
20260510055557 56 292 0.9 1.7 0.00 0.00 0.00 9 1010.1
20260510055555 56 292 0.9 1.7 0.00 0.00 0.00 9 1010.1
20260510055345 56 292 1.7 2.6 0.00 0.00 0.00 9 1010.1
20260510054850 56 292 0.9 1.7 0.00 0.00 0.00 9 1010.0
20260510054449 56 292 1.7 2.6 0.00 0.00 0.00 9 1010.1
20260510054040 55 292 0.9 1.7 0.00 0.00 0.00 9 1010.2
20260510053630 55 0 0.0 0.0 0.00 0.00 0.00 9 1010.1
20260510053214 56 292 0.0 0.9 0.00 0.00 0.00 9 1010.0
20260510052805 56 0 0.0 0.0 0.00 0.00 0.00 9 1010.1
20260510052803 56 0 0.0 0.0 0.00 0.00 0.00 9 1010.1
20260510052458 56 67 0.0 0.9 0.00 0.00 0.00 9 1010.0
20260510052427 56 67 0.0 0.9 0.00 0.00 0.00 9 1010.0
20260510052013 56 292 0.9 1.7 0.00 0.00 0.00 9 1009.8
20260510051531 55 292 0.9 1.7 0.00 0.00 0.00 9 1009.8
20260510051101 56 270 2.6 2.6 0.00 0.00 0.00 9 1009.8
20260510050609 56 270 1.7 2.6 0.00 0.00 0.00 9 1009.7
20260510050537 56 270 2.6 2.6 0.00 0.00 0.00 9 1009.8
20260510050121 56 247 1.7 2.6 0.00 0.00 0.00 9 1009.7
20260510045711 56 247 1.7 2.6 0.00 0.00 0.00 9 1009.7
20260510045709 56 247 1.7 2.6 0.00 0.00 0.00 9 1009.7
20260510045707 56 247 1.7 2.6 0.00 0.00 0.00 9 1009.7
20260510045541 56 247 1.7 2.6 0.00 0.00 0.00 9 1009.7
20260510045406 56 270 2.6 2.6 0.00 0.00 0.00 9 1009.7
20260510044922 56 247 2.6 3.5 0.00 0.00 0.00 9 1009.9
20260510044633 56 270 2.6 3.5 0.00 0.00 0.00 9 1009.8
20260510044455 56 315 0.9 2.6 0.00 0.00 0.00 9 1009.8
20260510044052 56 270 2.6 2.6 0.00 0.00 0.00 9 1009.8
20260510043708 56 270 1.7 2.6 0.00 0.00 0.00 9 1009.8
20260510043632 56 270 1.7 2.6 0.00 0.00 0.00 9 1009.8
20260510043207 57 270 2.6 3.5 0.00 0.00 0.00 9 1009.8
20260510042712 56 292 2.6 3.5 0.00 0.00 0.00 9 1009.7
20260510042425 56 292 1.7 1.7 0.00 0.00 0.00 9 1009.7
20260510042353 56 270 1.7 1.7 0.00 0.00 0.00 9 1009.7
20260510041857 56 270 2.6 3.5 0.00 0.00 0.00 9 1009.9
20260510041611 56 270 0.9 1.7 0.00 0.00 0.00 9 1009.7
20260510041445 56 247 1.7 2.6 0.00 0.00 0.00 9 1009.7
20260510041033 56 270 2.6 2.6 0.00 0.00 0.00 9 1009.8
20260510040703 56 270 2.6 3.5 0.00 0.00 0.00 9 1009.7
20260510040629 56 270 2.6 3.5 0.00 0.00 0.00 9 1009.7
20260510040200 56 247 1.7 2.6 0.00 0.00 0.00 9 1009.7
20260510035711 56 270 1.7 2.6 0.00 0.00 0.00 9 1009.7
20260510035341 56 270 2.6 3.5 0.00 0.00 0.00 9 1009.6
20260510034917 56 270 2.6 2.6 0.00 0.00 0.00 9 1009.5
20260510034444 56 225 1.7 2.6 0.00 0.00 0.00 9 1009.5
20260510034016 55 292 2.6 2.6 0.00 0.00 0.00 9 1009.6
20260510033649 56 292 2.6 2.6 0.00 0.00 0.00 9 1009.7
20260510033604 56 292 0.0 1.7 0.00 0.00 0.00 9 1009.6
20260510033156 57 292 1.7 2.6 0.00 0.00 0.00 9 1009.6
20260510032706 56 292 1.7 1.7 0.00 0.00 0.00 9 1009.4
20260510032704 56 292 1.7 1.7 0.00 0.00 0.00 9 1009.4
20260510032357 56 0 0.0 0.0 0.00 0.00 0.00 9 1009.3
20260510031942 56 225 1.7 1.7 0.00 0.00 0.00 9 1009.4
20260510031659 55 0 0.0 0.0 0.00 0.00 0.00 9 1009.4
20260510031529 55 0 0.0 0.0 0.00 0.00 0.00 9 1009.4
20260510031044 56 0 0.9 1.7 0.00 0.00 0.00 9 1009.5
20260510030700 55 247 0.0 0.9 0.00 0.00 0.00 9 1009.5
20260510030628 55 247 0.0 0.9 0.00 0.00 0.00 9 1009.5
20260510030203 55 0 0.0 0.9 0.00 0.00 0.00 9 1009.3
20260510025708 55 225 0.9 1.7 0.00 0.00 0.00 9 1009.3
20260510025538 55 225 0.9 1.7 0.00 0.00 0.00 9 1009.3
20260510025357 55 292 0.0 0.9 0.00 0.00 0.00 9 1009.3
20260510024924 55 315 1.7 2.6 0.00 0.00 0.00 9 1009.4
20260510024632 55 315 2.6 2.6 0.00 0.00 0.00 9 1009.4
20260510024454 56 270 0.9 1.7 0.00 0.00 0.00 9 1009.4
20260510024051 57 247 0.0 0.9 0.00 0.00 0.00 9 1009.4
20260510023631 56 270 0.9 1.7 0.00 0.00 0.00 9 1009.4
20260510023206 56 292 2.6 2.6 0.00 0.00 0.00 9 1009.4
20260510022711 56 225 0.9 1.7 0.00 0.00 0.00 9 1009.2
20260510022446 56 292 0.9 1.7 0.00 0.00 0.00 9 1009.2
20260510022004 55 292 0.9 1.7 0.00 0.00 0.00 9 1009.3
20260510021529 55 270 1.7 2.6 0.00 0.00 0.00 9 1009.4
20260510021043 55 247 2.6 3.5 0.00 0.00 0.00 9 1009.4
20260510020659 55 270 2.6 2.6 0.00 0.00 0.00 9 1009.4
20260510020626 55 270 2.6 2.6 0.00 0.00 0.00 9 1009.4
20260510020201 55 292 2.6 3.5 0.00 0.00 0.00 9 1009.3
20260510015706 55 292 2.6 2.6 0.00 0.00 0.00 9 1009.4
20260510015458 55 292 1.7 1.7 0.00 0.00 0.00 9 1009.4
20260510015011 56 292 0.0 0.9 0.00 0.00 0.00 9 1009.3
20260510014520 57 292 1.7 2.6 0.00 0.00 0.00 9 1009.4
20260510014051 56 270 2.6 2.6 0.00 0.00 0.00 9 1009.3
20260510013708 56 292 2.6 2.6 0.00 0.00 0.00 9 1009.4
20260510013633 56 292 2.6 2.6 0.00 0.00 0.00 9 1009.4
20260510013208 55 292 1.7 2.6 0.00 0.00 0.00 9 1009.5
20260510012713 55 292 1.7 2.6 0.00 0.00 0.00 9 1009.4
20260510012234 56 292 1.7 1.7 0.00 0.00 0.00 9 1009.5
20260510012140 55 270 1.7 2.6 0.00 0.00 0.00 9 1009.5
20260510011831 55 247 0.9 1.7 0.00 0.00 0.00 9 1009.5
20260510011358 55 292 0.9 1.7 0.00 0.00 0.00 9 1009.7
20260510011245 55 292 0.0 1.7 0.00 0.00 0.00 9 1009.5
20260510010922 55 0 0.0 0.9 0.00 0.00 0.00 9 1009.6
20260510010428 56 270 0.0 0.9 0.00 0.00 0.00 9 1009.7
20260510010003 56 270 1.7 2.6 0.00 0.00 0.00 9 1009.8
20260510005551 56 270 1.7 1.7 0.00 0.00 0.00 9 1009.9
20260510005452 56 270 1.7 1.7 0.00 0.00 0.00 9 1009.9
20260510005411 56 292 0.0 1.7 0.00 0.00 0.00 9 1009.8
20260510005047 56 292 0.9 1.7 0.00 0.00 0.00 9 1009.7
20260510004607 57 292 1.7 1.7 0.00 0.00 0.00 9 1010.0
20260510004533 57 292 1.7 1.7 0.00 0.00 0.00 9 1010.0
20260510004141 57 270 2.6 2.6 0.00 0.00 0.00 9 1010.0
20260510003646 57 225 0.9 1.7 0.00 0.00 0.00 9 1010.0
20260510003219 58 292 0.9 1.7 0.00 0.00 0.00 9 1009.9
20260510002754 57 270 2.6 2.6 0.00 0.00 0.00 9 1010.1
20260510002627 57 270 2.6 2.6 0.00 0.00 0.00 9 1010.1
20260510002401 57 270 1.7 2.6 0.00 0.00 0.00 9 1010.1
20260510001930 57 270 0.9 1.7 0.00 0.00 0.00 9 1010.1
20260510001652 57 270 0.0 0.9 0.00 0.00 0.00 9 1010.2
20260510001505 57 270 0.9 0.9 0.00 0.00 0.00 9 1010.1
20260510001040 57 247 1.7 1.7 0.00 0.00 0.00 9 1010.2
20260510000653 57 315 0.9 0.9 0.00 0.00 0.00 9 1010.2
20260510000621 57 315 0.9 0.9 0.00 0.00 0.00 9 1010.2
20260510000155 57 315 1.7 2.6 0.00 0.00 0.00 9 1010.2
20260509235701 58 292 0.9 1.7 0.00 0.00 0.00 9 1010.0
20260509235441 57 292 0.9 1.7 0.00 0.00 0.00 9 1009.9
20260509234954 58 292 1.7 2.6 0.00 0.00 0.00 9 1010.2
20260509234548 58 0 0.0 0.0 0.00 0.00 0.00 9 1010.2
20260509234510 58 0 0.0 0.0 0.00 0.00 0.00 9 1010.3
20260509234045 58 0 0.0 0.0 0.00 0.00 0.00 9 1010.2
20260509233700 58 225 0.9 1.7 0.00 0.00 0.00 9 1010.3
20260509233627 58 225 0.9 1.7 0.00 0.00 0.00 9 1010.3
20260509233202 58 0 0.0 0.9 0.00 0.00 0.00 9 1010.3
20260509232707 59 270 0.9 1.7 0.00 0.00 0.00 9 1010.3
20260509232254 59 270 1.7 1.7 0.00 0.00 0.00 9 1010.4
20260509232213 59 270 1.7 2.6 0.00 0.00 0.00 9 1010.4
20260509231851 59 270 1.7 2.6 0.00 0.00 0.00 9 1010.4
20260509231417 59 292 1.7 1.7 0.00 0.00 0.00 9 1010.4
20260509231318 59 292 1.7 2.6 0.00 0.00 0.00 9 1010.5
20260509230957 59 292 1.7 1.7 0.00 0.00 0.00 9 1010.5
20260509230451 59 292 1.7 1.7 0.00 0.00 0.00 9 1010.5
20260509230036 59 292 0.9 1.7 0.00 0.00 0.00 9 1010.5
20260509225623 59 315 0.9 1.7 0.00 0.00 0.00 9 1010.5
20260509225447 59 315 0.9 1.7 0.00 0.00 0.00 9 1010.5
20260509225423 59 315 0.9 1.7 0.00 0.00 0.00 9 1010.5
20260509225023 59 292 1.7 2.6 0.00 0.00 0.00 9 1010.5
20260509224523 59 292 3.5 5.2 0.00 0.00 0.00 9 1010.5
20260509224037 59 292 1.7 1.7 0.00 0.00 0.00 9 1010.6
20260509223602 59 270 0.0 0.9 0.00 0.00 0.00 9 1010.6
20260509223130 59 292 0.9 1.7 0.00 0.00 0.00 9 1010.6
20260509222640 59 292 0.9 1.7 0.00 0.00 0.00 9 1010.7
20260509222440 59 315 0.9 1.7 0.00 0.00 0.00 9 1010.8
20260509222301 59 292 0.9 1.7 0.00 0.00 0.00 9 1010.6
20260509222007 59 270 2.6 2.6 0.00 0.00 0.00 9 1010.7
20260509221543 59 270 3.5 5.2 0.00 0.00 0.00 9 1010.9
20260509221304 59 270 2.6 3.5 0.00 0.00 0.00 9 1010.7
20260509221102 59 270 1.7 2.6 0.00 0.00 0.00 9 1010.7
20260509220658 59 270 3.5 5.2 0.00 0.00 0.00 9 1010.7
20260509220413 59 315 3.5 5.2 0.00 0.00 0.00 9 1010.6
20260509220250 59 337 5.2 7.8 0.00 0.00 0.00 9 1010.5
20260509215842 59 292 2.6 3.5 0.00 0.00 0.00 9 1010.7
20260509215519 59 292 2.6 2.6 0.00 0.00 0.00 9 1010.6
20260509215344 59 270 2.6 3.5 0.00 0.00 0.00 9 1010.5
20260509214922 59 292 0.9 1.7 0.00 0.00 0.00 9 1010.3
20260509214554 59 315 1.7 2.6 0.00 0.00 0.00 9 1010.2
20260509214457 59 315 1.7 1.7 0.00 0.00 0.00 9 1010.3
20260509214052 59 292 1.7 2.6 0.00 0.00 0.00 9 1010.3
20260509213706 59 337 1.7 2.6 0.00 0.00 0.00 9 1010.2
20260509213632 59 337 1.7 2.6 0.00 0.00 0.00 9 1010.1
20260509213207 59 0 0.0 0.0 0.00 0.00 0.00 9 1010.1
20260509212712 59 0 0.0 0.0 0.00 0.00 0.00 9 1009.9
20260509212416 59 112 0.0 0.9 0.00 0.00 0.00 9 1009.9
20260509212217 59 112 0.9 1.7 0.00 0.00 0.00 9 1009.9
20260509211726 59 112 1.7 2.6 0.00 0.00 0.00 9 1009.9
20260509211458 59 112 1.7 1.7 0.00 0.00 0.00 9 1010.0
20260509211310 59 112 1.7 1.7 0.00 0.00 0.00 9 1010.0
20260509210905 59 0 0.0 0.0 0.00 0.00 0.00 9 1010.0
20260509210506 59 157 0.0 0.9 0.00 0.00 0.00 9 1010.3
20260509210458 59 202 0.0 0.9 0.00 0.00 0.00 9 1010.3
20260509210040 59 270 0.9 1.7 0.00 0.00 0.00 9 1010.5
20260509205629 59 0 0.0 0.9 0.00 0.00 0.00 9 1010.5
20260509205349 59 247 0.0 1.7 0.00 0.00 0.00 9 1010.4
20260509205300 59 0 0.0 0.9 0.00 0.00 0.00 9 1010.4
20260509204857 59 0 0.0 0.9 0.00 0.00 0.00 9 1010.4
20260509204541 59 0 0.0 0.0 0.00 0.00 0.00 9 1010.6
20260509204437 59 292 0.0 0.9 0.00 0.00 0.00 9 1010.5
20260509204032 59 292 0.9 1.7 0.00 0.00 0.00 9 1010.4
20260509203647 59 292 2.6 2.6 0.00 0.00 0.00 9 1010.5
20260509203612 59 292 1.7 1.7 0.00 0.00 0.00 9 1010.4
20260509203146 59 270 1.7 1.7 0.00 0.00 0.00 9 1010.4
20260509202652 59 0 0.0 0.0 0.00 0.00 0.00 9 1010.0
20260509202311 59 0 0.0 0.0 0.00 0.00 0.00 9 1010.0
20260509201857 60 0 0.0 0.0 0.00 0.00 0.00 9 1009.9
20260509201413 60 0 0.0 0.0 0.00 0.00 0.00 9 1010.0
20260509200940 60 0 0.0 0.0 0.00 0.00 0.00 9 1010.0
20260509200451 60 270 0.9 1.7 0.00 0.00 0.00 9 1009.9
20260509200419 60 270 0.9 1.7 0.00 0.00 0.00 9 1009.9
20260509200003 59 270 0.9 1.7 0.00 0.00 0.00 9 1009.9
20260509195552 59 270 1.7 2.6 0.00 0.00 0.00 9 1009.9
20260509195344 59 270 1.7 1.7 0.00 0.00 0.00 9 1009.9
20260509194913 60 0 0.0 0.0 0.00 0.00 0.00 9 1009.7
20260509194546 60 0 0.0 0.0 0.00 0.00 0.00 9 1009.6
20260509194503 60 0 0.0 0.0 0.00 0.00 0.00 9 1009.5
20260509194029 59 0 0.0 0.0 0.00 0.00 0.00 9 1009.4
20260509193546 59 0 0.0 0.0 0.00 0.00 0.00 9 1009.4
20260509193128 59 0 0.0 0.0 0.00 0.00 0.00 9 1009.3
20260509192717 59 90 0.0 0.9 0.00 0.00 0.00 9 1009.2
20260509192340 60 90 0.9 2.6 0.00 0.00 0.00 9 1009.1
20260509192305 60 90 0.9 1.7 0.00 0.00 0.00 9 1009.0
20260509191909 60 90 0.9 2.6 0.00 0.00 0.00 9 1009.0
20260509191503 60 112 4.3 5.2 0.00 0.00 0.00 9 1008.8
20260509191406 60 112 2.6 3.5 0.00 0.00 0.00 9 1008.8
20260509191045 60 112 2.6 3.5 0.00 0.00 0.00 9 1008.7
20260509190539 60 135 2.6 3.5 0.00 0.00 0.00 9 1008.8
20260509190123 60 90 0.9 1.7 0.00 0.00 0.00 9 1008.8
20260509185716 61 90 1.7 2.6 0.00 0.00 0.00 9 1008.7
20260509185714 61 90 1.7 2.6 0.00 0.00 0.00 9 1008.7
20260509185436 61 112 1.7 2.6 0.00 0.00 0.00 9 1008.7
20260509185306 61 90 2.6 3.5 0.00 0.00 0.00 9 1008.8
20260509185023 61 90 2.6 3.5 0.00 0.00 0.00 9 1008.8
20260509184539 61 90 2.6 3.5 0.00 0.00 0.00 9 1008.6
20260509184411 61 90 2.6 2.6 0.00 0.00 0.00 9 1008.8
20260509184109 61 90 1.7 2.6 0.00 0.00 0.00 9 1008.7
20260509183617 62 67 1.7 2.6 0.00 0.00 0.00 9 1008.4
20260509183129 62 67 1.7 2.6 0.00 0.00 0.00 9 1008.4
20260509182714 62 90 2.6 3.5 0.00 0.00 0.00 9 1008.1
20260509182301 62 112 5.2 5.2 0.00 0.00 0.00 8 1008.1
20260509182211 62 112 3.5 5.2 0.00 0.00 0.00 8 1007.9
20260509181812 62 112 4.3 5.2 0.00 0.00 0.00 8 1007.9
20260509181354 62 112 4.3 7.0 0.00 0.00 0.00 8 1007.7
20260509180948 62 112 2.6 5.2 0.00 0.00 0.00 8 1007.9
20260509180631 62 112 3.5 5.2 0.00 0.00 0.00 8 1007.9
20260509180541 62 112 3.5 5.2 0.00 0.00 0.00 8 1007.9
20260509180123 62 90 4.3 5.2 0.00 0.00 0.00 8 1008.0
20260509175714 62 112 3.5 5.2 0.00 0.00 0.00 8 1007.9
20260509175432 62 90 3.5 5.2 0.00 0.00 0.00 8 1007.9
20260509175001 63 112 5.2 7.0 0.00 0.00 0.00 8 1007.8
20260509174624 63 112 3.5 5.2 0.00 0.00 0.00 8 1007.6
20260509174517 63 112 3.5 5.2 0.00 0.00 0.00 8 1007.6
20260509174054 63 135 2.6 3.5 0.00 0.00 0.00 8 1007.7
20260509173711 63 112 2.6 5.2 0.00 0.00 0.00 8 1007.8
20260509173635 63 112 2.6 5.2 0.00 0.00 0.00 8 1007.8
20260509173210 63 112 3.5 5.2 0.00 0.00 0.00 8 1007.9
20260509172718 63 90 4.3 5.2 0.00 0.00 0.00 8 1007.9
20260509172714 63 90 4.3 5.2 0.00 0.00 0.00 8 1007.9
20260509172335 63 90 3.5 5.2 0.00 0.00 0.00 8 1007.9
20260509171906 63 112 5.2 7.0 0.00 0.00 0.00 8 1007.9
20260509171422 64 112 6.1 7.8 0.00 0.00 0.00 8 1007.9
20260509171000 63 90 6.1 8.7 0.00 0.00 0.00 8 1007.8
20260509170511 63 112 4.3 7.0 0.00 0.00 0.00 8 1007.8
20260509170043 63 112 5.2 7.8 0.00 0.00 0.00 8 1007.8
20260509165634 64 90 3.5 5.2 0.00 0.00 0.00 8 1007.6
20260509165555 64 90 3.5 5.2 0.00 0.00 0.00 8 1007.6
20260509165552 64 90 3.5 5.2 0.00 0.00 0.00 8 1007.6
20260509165101 63 90 7.0 9.6 0.00 0.00 0.00 8 1007.6
20260509164630 63 112 5.2 7.0 0.00 0.00 0.00 8 1007.6
20260509163842 64 135 3.5 5.2 0.00 0.00 0.00 8 1007.6
20260509163341 64 112 5.2 8.7 0.00 0.00 0.00 8 1007.4
20260509162849 64 135 3.5 7.8 0.00 0.00 0.00 8 1007.5
20260509162718 64 90 4.3 7.0 0.00 0.00 0.00 8 1007.5